Starlink 32325

operational
NORAD ID: 61588 Int'l Des: 2024-187 Owner: SPXS Country: US Constellation: starlink
LEOCIRCULAR

About Starlink 32325

Description loading...

Live Position

Loading 3D Globe...

Upcoming Passes

Altitude History

Altitude vs Time

uPlot chart will show altitude changes over time

Two-Line Element Set

1 61588U 24187Q 25351.66695456 .00000621 00000-0 33100-4 0 9993
2 61588 53.1612 86.1649 0001356 91.6630 268.4526 15.30192978 66529
Epoch: Dec 17, 2025 • Age: 19 hours

Current Status

Altitude 475.2 km
Velocity 7.63 km/s
Sub-Earth Point 14.13°N, 157.4°W
Launch Date Oct 18, 2024
Age 1.1 years
Type internet

Technical Details

Classification Payload
Mass 730.00 kg
Dry Mass 700.00 kg
Total Mass 730.00 kg
Length 0.30 m
Diameter 4.10 m
Span 29.00 m
Shape Box + pan
Manufacturer SPXS
Bus Type Starlink V2M
Phase Status In Orbit
Owner/State SPXS/US

Large Constellations

Loading constellations...